Regional Weather Roundup
Issued by NWS

Home | Current Version | Previous Version | Graphics & Text | Print | Product List | Glossary On
Versions: 1 2 3 4 5 6 7 8 9 10 11 12 13 14 15 16 17 18 19 20 21 22 23 24 25 26 27 28 29 30 31 32 33 34 35 36 37 38 39 40 41 42 43 44 45 46 47 48 49 50
000
ASUS43 KLOT 260100
RWRIL

ILLINOIS REGIONAL WEATHER ROUNDUP
NATIONAL WEATHER SERVICE CHICAGO/ROMEOVILLE IL
800 PM CDT FRI JUL 25 2014

NOTE: "FAIR" INDICATES FEW OR NO CLOUDS BELOW 12,000 FEET WITH NO
SIGNIFICANT WEATHER AND/OR OBSTRUCTIONS TO VISIBILITY.

* THESE STATIONS ARE NOT UNDER NWS QUALITY CONTROL. THEY ALSO MAY NOT
  REPORT WEATHER SUCH AS PRECIPITATION OR FOG.

ILZ001-002-007-009-015-016-024-260200-
NORTHWEST ILLINOIS

CITY           SKY/WX    TMP DP  RH WIND       PRES   REMARKS
MOLINE         CLOUDY    72  63  73 SE7       29.88S
STERLING*      CLOUDY    66  61  82 S7        29.92S
$$

ILZ003-004-008-010-011-017-018-260200-
NORTH CENTRAL ILLINOIS

CITY           SKY/WX    TMP DP  RH WIND       PRES   REMARKS
ROCKFORD       CLOUDY    68  59  73 S13       29.93S
FREEPORT*      CLOUDY    64  60  85 S12       29.93S
DE KALB*       CLOUDY    66  60  79 S8        29.94S
$$

ILZ005-006-012>014-019>023-260200-
NORTHEAST ILLINOIS

CITY           SKY/WX    TMP DP  RH WIND       PRES   REMARKS
CHICAGO-OHARE  PTCLDY    71  57  61 SW9       29.92S
CHICAGO-MIDWAY PTCLDY    73  59  61 S10       29.93S
AURORA         CLOUDY    70  59  68 S7        29.93F
LANSING*       CLEAR     69  59  69 S6        29.94S
WAUKEGAN       CLEAR     69  59  70 SW7       29.91S
DUPAGE AIRPORT CLOUDY    70  59  68 S9        29.92F
WHEELING       CLEAR     73  59  61 S8        29.93S
NORTHERLY ISL    N/A     72  57  59 S9          N/A
$$

LMZ740>746-260200-
SOUTHERN LAKE MICHIGAN

STATION/POSITION SKY/WX   TEMP    WIND        PRES    VSBY  WAVE
                          AIR SEA DIR/SP/G                  HT/PER
                          (F)     (DEG/KT/KT) (MB)    (MI)  (FT/S)
SOUTHERN BUOY              65 62  160/  4/  6 1013.4F         1/ 4
WAUKEGAN HARBOR            72     230/  9/ 12   N/A
HARRISON CRIB              71     190/ 15/ 16   N/A
BURNHAM HARBOR             72     200/ 10/ 12   N/A
CALUMET HARBOR             72     210/  7/ 11 1012.3F
MICHIGAN CITY              71     160/  9/ 12   N/A
MICHIGAN CITY 6N           70 68  160/  6/  8   N/A           1/ 2
ST. JOSEPH                 68 66  180/  8/ 10   N/A           1/ 3
$$

ILZ025>027-034>036-040-047-049-050-058-095>099-260200-
WEST-CENTRAL ILLINOIS

CITY           SKY/WX    TMP DP  RH WIND       PRES   REMARKS
QUINCY         CLEAR     74  65  73 E7        29.85S
GALESBURG*     CLOUDY    71  64  77 E7        29.89S
MACOMB*        CLOUDY    71  64  77 E5        29.89S
$$

ILZ028>032-037-038-041>044-048-051>054-059>061-260200-
CENTRAL ILLINOIS

CITY           SKY/WX    TMP DP  RH WIND       PRES   REMARKS
PONTIAC        CLOUDY    70  63  78 S3        29.95S
DECATUR        CLEAR     70  62  76 SE5       29.95S
PEORIA         CLOUDY    72  61  68 SE10      29.91F
SPRINGFIELD    CLEAR     72  63  73 E7        29.92S
TAYLORVILLE    NOT AVBL
$$

ILZ033-039-045-046-055>057-062-063-260200-
EAST-CENTRAL ILLINOIS

CITY           SKY/WX    TMP DP  RH WIND       PRES   REMARKS
CHAMPAIGN      CLEAR     67  61  81 E5        29.98R
MATTOON        CLEAR     68  61  78 SE3       29.95R
$$

ILZ079-100>102-260200-
SOUTHWEST ILLINOIS

CITY           SKY/WX    TMP DP  RH WIND       PRES   REMARKS
ALTON          CLEAR     73  66  78 S7        29.88S
BELLEVILLE     CLEAR     74  65  72 E3        29.89R
CAHOKIA*       CLEAR     77  64  64 S5        29.88R
SPARTA*        CLEAR     72  63  73 S10       29.91S
$$

ILZ064>066-069>071-074>076-080>082-084>086-088>090-092>094-260200-
SOUTH-CENTRAL ILLINOIS

CITY           SKY/WX    TMP DP  RH WIND       PRES   REMARKS
CARBONDALE     MOCLDY    74  62  66 SW10      29.92R
MT. VERNON     PTCLDY    72  61  68 S5        29.94R
SALEM*         MOCLDY    74  64  70 S3        29.92S
$$

ILZ067-068-072-073-078-083-087-091-260200-
SOUTHEAST ILLINOIS

CITY           SKY/WX    TMP DP  RH WIND       PRES   REMARKS
LAWRENCEVILLE  CLEAR     70  63  78 S5        29.97R
HARRISBURG*    MOCLDY    72  64  77 CALM      29.94R
ROBINSON*      CLEAR     71  63  76 CALM      29.97R
CARMI*         PTCLDY    72  66  83 CALM      29.94R
$$

ABBREVIATIONS USED IN REMARKS
   TC - TEMPERATURE IN CELSIUS
  WCI - WIND CHILL INDEX
   HX - HEAT INDEX
  VSB - VISIBILITY
$$




USA.gov is the U.S. government's official web portal to all federal, state and local government web resources and services.